Meteo Giornale » Osservazioni meteo Italia » Milano-Malpensa

ore: 06:20 - Osservazioni Meteo Milano-Malpensa
Lat. 45° 37' N Lon. 8° 44' E Alt. 234 metri s.l.m.

molto_nuvoloso Europe/Rome

20 °C

Molto Nuvoloso

Temp. 24 Ore

20 °C

28 °C

Nord

16.7 Km/h

Dew point 16 °C

Umidità 77 %

Visibilità  10 Km

Il sole sorge alle ore 06:27

Il sole tramonta alle ore 20:30

Data e Ora Cielo e Fenomeni T °C DP °C Um. % Pres. hPa Vis. km Vento km/h
Oggi h: 06:20 molto_nuvoloso Molto Nuvoloso 20 16 77 1012 10 N 16.7
Oggi h: 05:50 molto_nuvoloso Molto Nuvoloso 20 17 82 1012 10 N 20.3
Oggi h: 05:20 molto_nuvoloso Molto Nuvoloso 21 18 82 1012 10 N/NE 16.7
Oggi h: 04:50 molto_nuvoloso Molto Nuvoloso 21 19 88 1012 10 N 14.8
Oggi h: 04:20 molto_nuvoloso Molto Nuvoloso 21 19 88 1012 10 N 9.3
Oggi h: 03:50 molto_nuvoloso Molto Nuvoloso 20 19 93 1012 10 N 9.3
Oggi h: 03:20 molto_nuvoloso Molto Nuvoloso 21 19 88 1012 10 N 3.7
Oggi h: 02:50 coperto_pioggia Pioggia Debole 21 18 82 1013 10 NE 9.3
Oggi h: 02:20 coperto_pioggia Pioggia Debole 21 17 77 1013 10 NE 13
Oggi h: 01:50 nuvoloso Nuvoloso 21 17 77 1012 10 N/NE 13
Oggi h: 01:20 sereno Sereno 21 17 77 1013 10 N/NE 13
Oggi h: 00:50 sereno Sereno 21 17 77 1013 10 N/NE 14.8
Oggi h: 00:20 sereno Sereno 21 17 77 1014 10 N 14.8
Ieri h: 23:50 sereno Sereno 21 17 77 1014 10 N 14.8
Ieri h: 23:20 sereno Sereno 21 17 77 1014 10 N 13
Ieri h: 22:50 sereno Sereno 21 17 77 1014 10 N/NE 14.8
Ieri h: 22:20 sereno Sereno 21 17 77 1014 10 N/NE 13
Ieri h: 21:50 sereno Sereno 21 17 77 1014 10 N/NE 14.8
Ieri h: 21:20 sereno Sereno 21 17 77 1013 10 N 18.5
Ieri h: 20:50 sereno Sereno 21 17 77 1013 10 N 22.2
Ieri h: 20:20 sereno Sereno 22 17 73 1012 10 N 16.7
Ieri h: 19:50 sereno Sereno 23 17 68 1013 10 O/NO 18.5
Ieri h: 19:20 sereno Sereno 25 19 69 1013 10 S/SO 16.7
Ieri h: 18:50 nuvoloso Nuvoloso 25 19 69 1013 10 S 14.8
Ieri h: 18:20 coperto_pioggia Pioggia Debole 26 20 69 1012 10 S/SE 14.8
Ieri h: 17:50 nuvoloso Nuvoloso 27 19 61 1013 10 S 13
Ieri h: 17:20 nuvoloso Nuvoloso 27 19 61 1013 10 S 13
Ieri h: 16:50 nuvoloso Nuvoloso 28 18 54 1013 10 S 9.3
Ieri h: 16:20 nuvoloso Nuvoloso 28 19 58 1013 10 S 13
Ieri h: 15:50 nuvoloso Nuvoloso 28 19 58 1013 10 S 9.3
Ieri h: 15:20 nuvoloso Nuvoloso 28 19 58 1014 10 S 11.1
Ieri h: 14:50 nuvoloso Nuvoloso 28 18 54 1014 10 S/SE 9.3
Ieri h: 14:20 nuvoloso Nuvoloso 28 17 51 1014 10 N 7.4
Ieri h: 13:50 poco_nuvoloso Poco Nuvoloso 28 17 51 1014 10 N 5.5
Ieri h: 13:20 nuvoloso Nuvoloso 28 17 51 1014 10 E/NE 7.4
Ieri h: 12:50 nuvoloso Nuvoloso 27 18 57 1014 10 N 7.4
Ieri h: 12:20 sereno Sereno 27 18 57 1014 10 E/SE 11.1
Ieri h: 11:50 sereno Sereno 26 19 65 1014 10 N 9.3
Ieri h: 11:20 sereno Sereno 25 19 69 1014 10 E/NE 13
Ieri h: 10:50 sereno Sereno 24 19 73 1014 10 E 9.3
Ieri h: 10:20 sereno Sereno 24 19 73 1014 10 E/NE 9.3
Ieri h: 09:50 molto_nuvoloso Molto Nuvoloso 24 19 73 1014 10 E 7.4
Ieri h: 09:20 molto_nuvoloso Molto Nuvoloso 23 19 78 1014 10 N/NE 11.1
Ieri h: 08:50 sereno Sereno 22 19 83 1014 10 NE 11.1
Ieri h: 08:20 molto_nuvoloso Molto Nuvoloso 22 19 83 1014 10 N/NE 9.3
Ieri h: 07:50 molto_nuvoloso Molto Nuvoloso 22 19 83 1014 10 N/NE 7.4
Ieri h: 07:20 molto_nuvoloso Molto Nuvoloso 21 19 88 1014 10 N/NE 7.4
Ieri h: 06:50 molto_nuvoloso Molto Nuvoloso 20 19 93 1013 10 N 5.5